Weather History for Quincy, IL

Change the Weather History Date:

Sunday, February 3, 2013

  Actual Average Record
Temperature  
Mean Temperature 29 °F 28 °F  
Max Temperature 34 °F 36 °F 66 °F (1992)
Min Temperature 24 °F 20 °F -18 °F (1996)
Degree Days  
Heating Degree Days 36 37  
Month to date heating degree days 123 112  
Since 1 July heating degree days 3274 3498  
Cooling Degree Days 0 0  
Month to date cooling degree days 0 0  
Year to date cooling degree days 0 0  
Moisture  
Dew Point 18 °F    
Average Humidity 68    
Maximum Humidity 88    
Minimum Humidity 47    
Precipitation  
Precipitation 0.00 in 0.05 in 0.79 in (1903)
Month to date precipitation 0.01 0.15  
Year to date precipitation 2.94 1.67  
Sea Level Pressure  
Sea Level Pressure 30.08 in    
Wind  
Wind Speed 12 mph (West)    
Max Wind Speed 28 mph    
Max Gust Speed 36 mph    
Visibility 10 miles    
Events      
T = Trace of Precipitation, MM = Missing Value Source: NWS Daily Summary

Daily Weather History Graph

Daily Weather History Graph

Search for Another Location

Airport:

Trip Planner

Search our weather history database for the weather conditions in past years. The results will help you decide how hot, cold, wet, or windy it might be!

Date:

Astronomy

Feb. 03, 2013 Rise Set
Actual Time 7:10 AM CST 5:26 PM CST
Civil Twilight 6:42 AM CST 5:55 PM CST
Nautical Twilight 6:10 AM CST 6:27 PM CST
Astronomical Twilight 5:38 AM CST 6:59 PM CST
Moon 12:38 AM CST (2/3) 11:04 AM CST (2/3)
Length of Visible Light 11h 12m
Length of Day
10h 15m
Waning Gibbous, 48% of the Moon is Illuminated
Feb 3
Waning Gibbous
Feb 10
New
Feb 17
First Quarter
Feb 25
Full
Mar 4
Last Quarter

Hourly Weather History & Observations

Time (CST) Temp. Windchill Dew Point Humidity Pressure Visibility Wind Dir Wind Speed Gust Speed Precip Events Conditions
12:54 AM 25.0 °F 17.1 °F 21.9 °F 88% 30.03 in 9.0 mi SSW 6.9 mph - N/A   Overcast
1:20 AM 24.8 °F 19.1 °F 21.2 °F 86% 30.01 in 9.0 mi WSW 4.6 mph - N/A   Overcast
1:54 AM 26.1 °F 18.4 °F 23.0 °F 88% 30.03 in 8.0 mi SW 6.9 mph - N/A   Overcast
2:42 AM 24.8 °F 16.1 °F 23.0 °F 93% 30.00 in 6.0 mi WSW 8.1 mph - N/A   Scattered Clouds
2:54 AM 25.0 °F 17.1 °F 21.9 °F 88% 30.03 in 6.0 mi WSW 6.9 mph - N/A   Partly Cloudy
3:54 AM 28.0 °F 18.1 °F 24.1 °F 85% 30.02 in 10.0 mi WNW 11.5 mph - N/A   Overcast
4:54 AM 30.0 °F 21.7 °F 25.0 °F 82% 30.03 in 10.0 mi West 9.2 mph - N/A   Overcast
5:52 AM 30.2 °F 16.8 °F 24.8 °F 80% 30.02 in 10.0 mi NW 23.0 mph 26.5 mph N/A   Overcast
5:54 AM 30.9 °F 19.4 °F 24.1 °F 76% 30.05 in 10.0 mi NW 17.3 mph 26.5 mph N/A   Overcast
6:31 AM 28.4 °F 14.4 °F 23.0 °F 80% 30.05 in 9.0 mi NNW 23.0 mph 29.9 mph N/A   Overcast
6:51 AM 26.6 °F 11.4 °F 19.4 °F 74% 30.06 in 10.0 mi NNW 25.3 mph 33.4 mph N/A   Overcast
6:54 AM 26.1 °F 10.7 °F 19.0 °F 75% 30.10 in 10.0 mi NNW 25.3 mph 35.7 mph N/A   Overcast
7:46 AM 24.8 °F 9.6 °F 15.8 °F 69% 30.10 in 10.0 mi NNW 23.0 mph 32.2 mph N/A   Overcast
7:54 AM 24.1 °F 9.0 °F 15.1 °F 69% 30.14 in 10.0 mi NW 21.9 mph 29.9 mph N/A   Mostly Cloudy
8:54 AM 24.1 °F 9.4 °F 14.0 °F 65% 30.17 in 10.0 mi NW 20.7 mph 28.8 mph N/A   Mostly Cloudy
9:54 AM 25.0 °F 11.3 °F 14.0 °F 63% 30.19 in 10.0 mi NW 18.4 mph 28.8 mph N/A   Clear
10:54 AM 28.0 °F 15.3 °F 16.0 °F 61% 30.20 in 10.0 mi WNW 18.4 mph 24.2 mph N/A   Clear
11:54 AM 28.9 °F 16.9 °F 14.0 °F 54% 30.21 in 10.0 mi NW 17.3 mph - N/A   Clear
12:54 PM 30.0 °F 19.1 °F 12.9 °F 49% 30.18 in 10.0 mi WNW 15.0 mph 20.7 mph N/A   Clear
1:54 PM 30.9 °F 21.7 °F 14.0 °F 50% 30.17 in 10.0 mi WNW 11.5 mph 17.3 mph N/A   Clear
2:54 PM 33.1 °F 24.9 °F 16.0 °F 50% 30.15 in 10.0 mi West 10.4 mph - N/A   Scattered Clouds
3:54 PM 32.0 °F 27.5 °F 15.1 °F 50% 30.12 in 10.0 mi West 4.6 mph - N/A   Clear
4:54 PM 30.9 °F 24.3 °F 15.1 °F 52% 30.10 in 10.0 mi SSW 6.9 mph - N/A   Clear
5:54 PM 28.9 °F 20.4 °F 17.1 °F 61% 30.09 in 10.0 mi SSW 9.2 mph - N/A   Clear
6:54 PM 28.0 °F 20.8 °F 16.0 °F 61% 30.09 in 10.0 mi South 6.9 mph - N/A   Clear
7:54 PM 28.0 °F 21.7 °F 16.0 °F 61% 30.07 in 10.0 mi SSE 5.8 mph - N/A   Clear
8:54 PM 27.0 °F 19.5 °F 16.0 °F 63% 30.04 in 10.0 mi SSE 6.9 mph - N/A   Clear
9:54 PM 27.0 °F 20.5 °F 15.1 °F 61% 30.02 in 10.0 mi SSE 5.8 mph - N/A   Clear
10:54 PM 27.0 °F 18.7 °F 16.0 °F 63% 29.99 in 10.0 mi SSE 8.1 mph - N/A   Clear
11:54 PM 27.0 °F 18.7 °F 15.1 °F 61% 29.97 in 10.0 mi SSE 8.1 mph - N/A   Clear